{"data":{"norad_id":64909,"epoch":"2026-05-24T20:28:44.413248Z","epoch_age_seconds":97883,"freshness":"FRESH","line1":"1 64909U 25157F   26144.85329182  .00019264  00000+0  66061-3 0  9996","line2":"2 64909  53.1599 351.9718 0000978  85.4183 274.6930 15.30211942 47739","mean_motion":15.30211942,"eccentricity":9.78e-5,"inclination_deg":53.1599,"raan_deg":351.9718,"arg_perigee_deg":85.4183,"mean_anomaly_deg":274.693,"bstar":0.00066061,"rev_number":4773,"period_min":94.104611294427,"perigee_km":474.50915864659,"apogee_km":475.84966733697,"semimajor_km":6853.3164129918,"source":"CELESTRAK","updated_at":"2026-05-25T13:38:20.620131Z"}}